Voltar ao catálogo

DNEPR 1 R/B

AtivoLEO
NORAD 26550·ROCKET BODY·🇷🇺 Russia

Lançado Sep 26, 2000 de Baikonur Cosmodrome

Loading…

Próximas Passagens (próximas 24 horas)

TLE

AtualizadoSource: Space-Track

Época: Sep 14, 2026, 21:30 UTC

1 26550U 00057F   26257.89635417 -.00000042  00000-0  24262-4 0  9992
2 26550  64.5596  82.7278 0522141   7.8592 353.0251 13.82130213309088

Acompanhe DNEPR 1 R/B em tempo real com AllMySat

Download on the App Store